QPF
0.00 0.00 0.00 0.00 0.00 0.00 0.00 0.00 0.00 0.00 0.00 0.00 0.00 0.00 0.00 0.00 0.00 0.00 0.00 0.00 0.00 0.00 0.00 0.00 0.00 0.00 0.00 0.00 0.00 0.00 0.00 0.00 0.00 0.00 0.00 0.00 0.00 0.00 0.00 0.00 0.00 0.00 0.00 0.00
0.00 0.00 0.00 0.00 0.00 0.00 0.00 0.00 0.00 0.00 0.00 0.00 0.00 0.00 0.00 0.00 0.00 0.00 0.00 0.00 0.00 0.00 0.00 0.00 0.00 0.00 0.00 0.00 0.00 0.00 0.00 0.00 0.00 0.00 0.00 0.00 0.00 0.00 0.00 0.00 0.00 0.00 0.00 0.00
0.00 0.00 0.00 0.00 0.00 0.00 0.00 0.00 0.00 0.00 0.00 0.00 0.00 0.00 0.00 0.00 0.00 0.00 0.00 0.00 0.00 0.00 0.00 0.00 0.00 0.00 0.00 0.00 0.00 0.00 0.00 0.00 0.00 0.00 0.00 0.00 0.00 0.00 0.00 0.00 0.00 0.00 0.00 0.00
0.00 0.00 0.00 0.00 0.00 0.00 0.00 0.00 0.00 0.00 0.00 0.00 0.00 0.00 0.00 0.00 0.00 0.00 0.00 0.00 0.00 0.00 0.00 0.00 0.00 0.00 0.00 0.00 0.00 0.00 0.00 0.00 0.00 0.00 0.00 0.00 0.00 0.00 0.00 0.00 0.00 0.00 0.00 0.00
0.00 0.00 0.00 0.00 0.00 0.00 0.00 0.00 0.00 0.00 0.00 0.00 0.00 0.00 0.00 0.00 0.00 0.00 0.00 0.00 0.00 0.00 0.00 0.00 0.00 0.00 0.00 0.00 0.00 0.00 0.00 0.00 0.00 0.00 0.00 0.00 0.00 0.00 0.00 0.00 0.00 0.00 0.00 0.00
0.00 0.00 0.00 0.00 0.00 0.00 0.00 0.00 0.00 0.00 0.00 0.00 0.00 0.00 0.00 0.00 0.00 0.00 0.00 0.00 0.00 0.00 0.00 0.00 0.00 0.00 0.00 0.00 0.00 0.00 0.00 0.00 0.00 0.00 0.00 0.00 0.00 0.00 0.00 0.00 0.00 0.00 0.00 0.00
0.00 0.00 0.00 0.00 0.00 0.00 0.00 0.00 0.00 0.00 0.00 0.00 0.00 0.00 0.00 0.00 0.00 0.00 0.00 0.00 0.00 0.00 0.00 0.00 0.00 0.00 0.00 0.00 0.00 0.00 0.00 0.00 0.00 0.00 0.00 0.00 0.00 0.00 0.00 0.00 0.00 0.00 0.00 0.00
0.00 0.00 0.00 0.00 0.00 0.00 0.00 0.00 0.00 0.00 0.00 0.00 0.00 0.00 0.00 0.00 0.00 0.00 0.00 0.00 0.00 0.00 0.00 0.00 0.00 0.00 0.00 0.00 0.00 0.00 0.00 0.00 0.00 0.00 0.00 0.00 0.00 0.00 0.00 0.00 0.00 0.00 0.00 0.00
0.00 0.00 0.00 0.00 0.00 0.00 0.00 0.00 0.00 0.00 0.00 0.00 0.00 0.00 0.00 0.00 0.00 0.00 0.00 0.00 0.00 0.00 0.00 0.00 0.00 0.00 0.00 0.00 0.00 0.00 0.00 0.00 0.00 0.00 0.00 0.00 0.00 0.00 0.00 0.00 0.00 0.00 0.00 0.00
0.00 0.00 0.00 0.00 0.00 0.00 0.00 0.00 0.00 0.00 0.00 0.00 0.00 0.00 0.00 0.00 0.00 0.00 0.00 0.00 0.00 0.00 0.00 0.00 0.00 0.00 0.00 0.00 0.00 0.00 0.00 0.00 0.00 0.00 0.00 0.00 0.00 0.00 0.00 0.00 0.00 0.00 0.00 0.00
0.00 0.00 0.00 0.00 0.00 0.00 0.00 0.00 0.00 0.00 0.00 0.00 0.00 0.00 0.00 0.00 0.00 0.00 0.00 0.00 0.00 0.00 0.00 0.00 0.00 0.00 0.00 0.00 0.00 0.00 0.00 0.00 0.00 0.00 0.00 0.00 0.00 0.00 0.00 0.00 0.00 0.00 0.00 0.00
0.00 0.00 0.00 0.00 0.00 0.00 0.00 0.00 0.00 0.00 0.00 0.00 0.00 0.00 0.00 0.00 0.00 0.00 0.00 0.00 0.00 0.00 0.00 0.00 0.00 0.00 0.00 0.00 0.00 0.00 0.00 0.00 0.00 0.00 0.00 0.00 0.00 0.00 0.00 0.00 0.00 0.00 0.00 0.00
0.00 0.00 0.00 0.00 0.00 0.00 0.00 0.00 0.00 0.00 0.00 0.00 0.00 0.00 0.00 0.00 0.00 0.00 0.00 0.00 0.00 0.00 0.00 0.00 0.00 0.00 0.00 0.00 0.00 0.00 0.00 0.00 0.00 0.00 0.00 0.00 0.00 0.00 0.00 0.00 0.00 0.00 0.00 0.00
0.00 0.00 0.00 0.00 0.00 0.00 0.00 0.00 0.00 0.00 0.00 0.00 0.00 0.00 0.00 0.00 0.00 0.00 0.00 0.00 0.00 0.00 0.00 0.00 0.00 0.00 0.00 0.00 0.00 0.00 0.00 0.00 0.00 0.00 0.00 0.00 0.00 0.00 0.00 0.00 0.00 0.00 0.00 0.00
0.00 0.00 0.00 0.00 0.00 0.00 0.00 0.00 0.00 0.00 0.00 0.00 0.00 0.00 0.00 0.00 0.00 0.00 0.00 0.00 0.00 0.00 0.00 0.00 0.00 0.00 0.00 0.00 0.00 0.00 0.00 0.00 0.00 0.00 0.00 0.00 0.00 0.00 0.00 0.00 0.00 0.00 0.00 0.00
0.00 0.00 0.00 0.00 0.00 0.00 0.00 0.00 0.00 0.00 0.00 0.00 0.00 0.00 0.00 0.00 0.00 0.00 0.00 0.00 0.00 0.00 0.00 0.00 0.00 0.00 0.00 0.00 0.00 0.00 0.00 0.00 0.00 0.00 0.00 0.00 0.00 0.00 0.00 0.00 0.00 0.00 0.00 0.00
0.00 0.00 0.00 0.00 0.00 0.00 0.00 0.00 0.00 0.00 0.00 0.00 0.00 0.00 0.00 0.00 0.00 0.00 0.00 0.00 0.00 0.00 0.00 0.00 0.00 0.00 0.00 0.00 0.00 0.00 0.00 0.00 0.00 0.00 0.00 0.00 0.00 0.00 0.00 0.00 0.00 0.00 0.00 0.00
0.00 0.00 0.00 0.00 0.00 0.00 0.00 0.00 0.00 0.00 0.00 0.00 0.00 0.00 0.00 0.00 0.00 0.00 0.00 0.00 0.00 0.00 0.00 0.00 0.00 0.00 0.00 0.00 0.00 0.00 0.00 0.00 0.00 0.00 0.00 0.00 0.00 0.00 0.00 0.00 0.00 0.00 0.00 0.00
0.00 0.00 0.00 0.00 0.00 0.00 0.00 0.00 0.00 0.00 0.00 0.00 0.00 0.00 0.00 0.00 0.00 0.00 0.00 0.00 0.00 0.00 0.00 0.00 0.00 0.00 0.00 0.00 0.00 0.00 0.00 0.00 0.00 0.00 0.00 0.00 0.00 0.00 0.00 0.00 0.00 0.00 0.00 0.00
0.00 0.00 0.00 0.00 0.00 0.00 0.00 0.00 0.00 0.00 0.00 0.00 0.00 0.00 0.00 0.00 0.00 0.00 0.00 0.00 0.00 0.00 0.00 0.00 0.00 0.00 0.00 0.00 0.00 0.00 0.00 0.00 0.00 0.00 0.00 0.00 0.00 0.00 0.00 0.00 0.00 0.00 0.00 0.00
0.00 0.00 0.00 0.00 0.00 0.00 0.00 0.00 0.00 0.00 0.00 0.00 0.00 0.00 0.00 0.00 0.00 0.00 0.00 0.00 0.00 0.00 0.00 0.00 0.00 0.00 0.00 0.00 0.00 0.00 0.00 0.00 0.00 0.00 0.00 0.00 0.00 0.00 0.00 0.00 0.00 0.00 0.00 0.00
0.00 0.00 0.00 0.00 0.00 0.00 0.00 0.00 0.00 0.00 0.00 0.00 0.00 0.00 0.00 0.00 0.00 0.00 0.00 0.00 0.00 0.00 0.00 0.00 0.00 0.00 0.00 0.00 0.00 0.00 0.00 0.00 0.00 0.00 0.00 0.00 0.00 0.00 0.00 0.00 0.00 0.00 0.00 0.00
0.00 0.00 0.00 0.00 0.00 0.00 0.00 0.00 0.00 0.00 0.00 0.00 0.00 0.00 0.00 0.00 0.00 0.00 0.00 0.00 0.00 0.00 0.00 0.00 0.00 0.00 0.00 0.00 0.00 0.00 0.00 0.00 0.00 0.00 0.00 0.00 0.00 0.00 0.00 0.00 0.00 0.00 0.00 0.00
0.00 0.00 0.00 0.00 0.00 0.00 0.00 0.00 0.00 0.00 0.00 0.00 0.00 0.00 0.00 0.00 0.00 0.00 0.00 0.00 0.00 0.00 0.00 0.00 0.00 0.00 0.00 0.00 0.00 0.00 0.00 0.00 0.00 0.00 0.00 0.00 0.00 0.00 0.00 0.00 0.00 0.00 0.00 0.00
0.00 0.00 0.00 0.00 0.00 0.00 0.00 0.00 0.00 0.00 0.00 0.00 0.00 0.00 0.00 0.00 0.00 0.00 0.00 0.00 0.00 0.00 0.00 0.00 0.00 0.00 0.00 0.00 0.00 0.00 0.00 0.00 0.00 0.00 0.00 0.00 0.00 0.00 0.00 0.00 0.00 0.00 0.00 0.00
0.00 0.00 0.00 0.00 0.00 0.00 0.00 0.00 0.00 0.00 0.00 0.00 0.00 0.00 0.00 0.00 0.00 0.00 0.00 0.00 0.00 0.00 0.00 0.00 0.00 0.00 0.00 0.00 0.00 0.00 0.00 0.00 0.00 0.00 0.00 0.00 0.00 0.00 0.00 0.00 0.00 0.00 0.00 0.00
0.00 0.00 0.00 0.00 0.00 0.00 0.00 0.00 0.00 0.00 0.00 0.00 0.00 0.00 0.00 0.00 0.00 0.00 0.00 0.00 0.00 0.00 0.00 0.00 0.00 0.00 0.00 0.00 0.00 0.00 0.00 0.00 0.00 0.00 0.00 0.00 0.00 0.00 0.00 0.00 0.00 0.00 0.00 0.00
MSLP
1020.90 1020.46 1020.04 1019.56 1019.53 1019.70 1019.96 1019.68 1019.66 1020.37 1020.44 1020.06 1020.17 1020.49 1020.90 1021.01 1021.08 1020.98 1020.66 1020.44 1020.25 1020.11 1020.32 1020.29 1020.45 1020.67 1021.10 1021.47 1021.66 1021.71 1022.07 1021.96 1022.39 1022.65 1023.31 1023.33 1023.03 1022.48 1021.98 1021.14 1021.24 1020.77 1019.72 1016.76
1020.85 1020.40 1019.93 1019.51 1019.54 1019.71 1019.60 1019.42 1019.83 1020.44 1020.24 1020.14 1020.38 1020.91 1020.94 1020.98 1020.97 1020.89 1020.69 1020.45 1020.40 1020.48 1020.40 1020.62 1020.82 1021.18 1021.71 1021.86 1021.88 1021.90 1021.99 1022.02 1022.08 1022.59 1023.33 1023.29 1022.71 1022.19 1021.90 1021.77 1021.27 1020.06 1018.90 1015.89
1021.28 1020.52 1020.07 1019.65 1019.66 1019.82 1019.60 1019.60 1019.68 1019.76 1019.86 1020.59 1020.25 1020.51 1020.86 1021.01 1021.14 1020.94 1020.78 1020.73 1020.66 1020.56 1020.60 1020.77 1020.95 1021.37 1021.99 1022.20 1022.23 1022.34 1022.17 1021.90 1021.40 1021.18 1021.22 1021.46 1021.84 1021.68 1021.70 1021.31 1020.70 1018.88 1017.21 1015.51
1021.62 1020.96 1020.32 1020.07 1020.00 1020.03 1019.93 1019.94 1020.78 1021.17 1020.43 1020.44 1020.32 1020.35 1020.80 1020.88 1020.95 1021.01 1020.96 1020.79 1020.70 1020.57 1020.71 1020.96 1021.10 1021.59 1022.11 1022.46 1022.58 1022.67 1022.47 1022.11 1021.99 1021.48 1021.44 1021.51 1021.15 1020.99 1021.11 1020.64 1019.68 1018.68 1016.41 1015.98
1021.90 1021.34 1020.73 1020.22 1019.98 1020.07 1020.04 1020.48 1020.63 1021.20 1020.98 1021.01 1020.56 1020.53 1020.57 1020.67 1020.97 1021.02 1021.02 1021.03 1020.95 1021.05 1021.05 1021.13 1021.20 1021.47 1021.84 1021.98 1022.84 1022.83 1023.08 1022.67 1022.58 1021.72 1021.19 1021.15 1020.80 1020.32 1020.37 1020.13 1019.62 1018.69 1017.86 1016.60
1022.12 1021.63 1021.11 1020.46 1020.16 1020.03 1020.29 1021.27 1021.17 1020.54 1021.19 1020.89 1020.76 1020.79 1020.85 1020.78 1020.79 1021.17 1021.10 1021.10 1021.17 1021.39 1021.64 1021.69 1021.78 1021.92 1022.08 1022.20 1022.43 1022.76 1023.07 1022.91 1022.83 1021.41 1021.14 1020.68 1019.39 1017.84 1018.69 1018.96 1018.82 1018.42 1018.03 1017.03
1022.45 1021.93 1021.51 1020.94 1020.43 1020.21 1020.63 1021.55 1021.27 1020.56 1020.83 1020.68 1020.53 1020.78 1020.90 1020.96 1021.09 1021.20 1021.44 1021.52 1021.41 1021.73 1021.84 1022.04 1022.12 1022.28 1022.51 1022.65 1022.98 1023.09 1023.13 1023.14 1022.93 1021.67 1020.76 1019.57 1018.10 1018.11 1018.13 1018.30 1018.15 1018.25 1017.93 1017.52
1022.78 1022.31 1021.84 1021.47 1021.03 1020.86 1021.09 1022.08 1021.71 1020.91 1020.62 1020.74 1020.78 1020.85 1020.89 1021.19 1021.44 1021.54 1021.57 1021.78 1021.97 1022.02 1022.05 1021.79 1021.72 1022.16 1022.62 1023.10 1023.70 1023.62 1023.52 1022.99 1022.52 1022.03 1020.76 1018.31 1017.58 1018.11 1018.22 1018.23 1018.14 1018.19 1018.39 1018.20
1022.81 1022.60 1022.20 1021.80 1021.47 1021.37 1021.47 1022.41 1022.55 1021.58 1020.81 1020.65 1020.61 1020.81 1020.99 1020.85 1021.12 1021.71 1022.10 1022.47 1022.45 1022.22 1021.82 1021.57 1021.34 1021.28 1021.68 1022.58 1023.49 1023.96 1023.89 1023.58 1022.84 1022.32 1020.98 1018.62 1017.58 1017.81 1018.03 1018.12 1018.26 1018.79 1018.95 1018.75
1022.50 1022.64 1022.48 1022.17 1021.80 1021.55 1021.56 1022.54 1022.76 1022.05 1021.35 1020.98 1020.96 1020.80 1020.94 1021.33 1021.41 1021.37 1021.93 1022.27 1022.46 1022.44 1021.74 1021.21 1021.05 1021.10 1021.59 1021.88 1022.41 1023.11 1023.43 1023.33 1022.50 1022.07 1021.16 1018.66 1018.15 1018.40 1018.55 1018.76 1019.62 1019.22 1019.24 1019.18
1022.07 1022.41 1022.41 1022.39 1022.15 1021.89 1021.70 1022.65 1022.76 1022.59 1022.16 1021.62 1021.59 1021.36 1021.34 1021.68 1021.68 1021.45 1022.12 1022.34 1022.36 1022.26 1021.84 1021.48 1021.15 1021.10 1021.18 1021.33 1021.24 1021.48 1021.49 1021.73 1021.58 1021.66 1021.04 1019.41 1018.84 1018.98 1018.99 1019.36 1019.25 1019.48 1019.48 1019.62
1022.04 1022.06 1022.31 1022.34 1022.30 1022.09 1021.97 1022.38 1022.87 1022.87 1022.71 1022.69 1022.63 1022.37 1022.39 1022.07 1021.92 1021.89 1022.22 1022.14 1021.95 1021.78 1021.60 1021.71 1021.49 1021.23 1021.44 1020.91 1020.55 1020.89 1020.47 1019.38 1019.48 1019.48 1018.63 1018.43 1018.91 1019.07 1019.41 1019.62 1019.80 1019.87 1020.02 1019.92
1021.81 1021.97 1022.05 1022.13 1022.20 1022.31 1022.17 1022.46 1022.80 1022.69 1022.63 1022.69 1022.74 1022.81 1022.92 1022.94 1022.73 1022.33 1022.04 1022.40 1022.32 1022.27 1022.34 1021.95 1021.94 1021.60 1021.22 1020.87 1020.46 1020.17 1019.78 1019.69 1019.22 1019.18 1018.41 1018.45 1018.65 1019.14 1019.82 1020.23 1020.39 1020.50 1020.44 1020.12
1021.57 1021.70 1021.89 1022.00 1022.05 1022.36 1022.55 1022.54 1022.80 1022.59 1022.82 1023.03 1022.96 1023.12 1023.26 1023.46 1023.19 1022.85 1022.59 1022.30 1022.56 1022.52 1022.58 1022.28 1022.16 1021.94 1021.60 1021.09 1020.74 1020.48 1020.04 1019.98 1019.30 1018.75 1018.44 1018.93 1019.31 1019.78 1020.16 1020.50 1020.59 1020.48 1020.30 1020.16
1021.09 1021.45 1021.70 1022.00 1022.03 1022.28 1022.78 1022.91 1023.00 1022.76 1022.83 1022.71 1022.77 1023.09 1023.69 1023.62 1023.31 1023.09 1023.04 1022.97 1022.96 1022.84 1022.74 1022.55 1022.34 1022.21 1022.18 1021.62 1021.32 1019.95 1019.59 1019.05 1019.01 1018.52 1019.00 1019.14 1019.43 1020.10 1020.32 1020.35 1020.46 1020.55 1020.37 1019.78
1020.61 1021.06 1021.43 1021.82 1022.14 1022.42 1022.86 1023.12 1023.36 1023.13 1022.94 1023.02 1022.77 1023.26 1023.45 1023.66 1023.55 1023.63 1023.54 1023.48 1023.32 1023.20 1022.93 1022.83 1022.35 1022.24 1022.27 1021.75 1020.65 1019.20 1019.27 1019.14 1018.88 1018.83 1019.32 1019.69 1020.04 1020.29 1020.47 1020.49 1020.41 1020.23 1019.99 1019.70
1020.36 1020.70 1021.28 1021.57 1022.06 1022.59 1022.95 1023.36 1023.07 1023.11 1022.94 1023.13 1023.08 1022.90 1023.48 1023.72 1023.75 1024.02 1024.08 1024.07 1023.99 1023.61 1023.25 1023.16 1022.91 1022.82 1022.44 1021.47 1019.86 1018.86 1018.99 1019.09 1019.23 1019.32 1019.46 1019.88 1020.10 1020.25 1020.32 1020.32 1020.13 1020.06 1019.93 1019.67
1020.28 1020.79 1021.29 1021.60 1022.06 1022.62 1023.10 1023.40 1023.25 1023.12 1023.12 1023.21 1023.56 1023.19 1023.49 1023.69 1023.82 1024.12 1024.35 1023.98 1024.11 1024.17 1023.64 1023.49 1023.06 1022.96 1022.55 1021.04 1019.38 1019.31 1019.38 1019.64 1019.93 1020.10 1020.02 1020.07 1020.27 1020.23 1020.07 1020.11 1020.07 1019.85 1019.43 1018.92
1020.46 1021.03 1021.43 1021.92 1022.36 1022.84 1023.28 1023.39 1023.49 1023.38 1023.76 1023.41 1023.49 1023.20 1023.27 1023.68 1023.90 1024.06 1024.42 1024.35 1024.03 1024.17 1023.68 1023.28 1023.19 1022.26 1021.24 1019.43 1019.25 1019.16 1019.36 1019.45 1019.68 1020.03 1020.20 1020.35 1020.49 1020.40 1020.33 1020.19 1019.85 1019.48 1018.94 1018.41
1020.56 1021.46 1021.70 1022.33 1022.90 1023.12 1023.26 1023.61 1023.81 1023.72 1023.53 1023.55 1023.20 1023.24 1023.17 1023.47 1023.93 1023.93 1024.11 1024.02 1023.85 1023.67 1023.37 1023.33 1022.78 1020.62 1019.21 1019.13 1018.96 1018.95 1019.35 1019.57 1019.74 1019.91 1020.03 1020.15 1020.31 1020.41 1020.12 1019.82 1019.51 1019.09 1018.43 1017.73
1020.90 1021.68 1022.16 1022.97 1023.02 1023.34 1023.32 1023.46 1023.70 1023.63 1023.51 1023.12 1022.85 1023.03 1023.23 1023.56 1023.45 1023.29 1023.60 1023.43 1023.54 1023.37 1023.13 1023.04 1021.80 1020.06 1018.61 1018.82 1019.09 1019.20 1019.34 1019.55 1019.76 1019.89 1019.94 1020.09 1020.20 1020.17 1019.85 1019.32 1018.87 1018.33 1017.74 1017.28
1020.24 1021.42 1022.46 1023.02 1023.20 1023.37 1023.58 1023.68 1023.81 1023.38 1022.82 1022.87 1022.78 1023.00 1023.26 1023.58 1023.48 1023.27 1023.58 1023.22 1023.40 1022.81 1022.99 1022.57 1020.90 1018.62 1018.45 1018.58 1018.59 1019.03 1019.35 1019.53 1019.68 1019.95 1019.87 1019.70 1019.57 1019.44 1019.17 1018.65 1018.22 1017.79 1017.16 1016.49
1020.53 1021.73 1022.59 1022.70 1023.37 1023.57 1023.49 1023.37 1023.19 1022.68 1022.20 1022.58 1022.90 1023.05 1023.36 1023.70 1023.54 1023.25 1023.19 1023.08 1022.91 1022.93 1022.50 1021.18 1019.23 1018.36 1018.52 1018.48 1018.55 1018.87 1019.17 1019.37 1019.59 1019.54 1019.48 1019.38 1019.00 1018.67 1018.50 1017.96 1017.47 1017.01 1016.13 1015.41
1020.82 1021.86 1022.67 1022.51 1022.87 1022.64 1022.25 1022.19 1022.19 1022.17 1022.08 1022.29 1022.65 1022.97 1023.20 1023.22 1023.19 1023.01 1023.06 1022.85 1022.89 1022.38 1021.42 1019.63 1017.92 1017.61 1017.74 1018.09 1018.23 1018.35 1018.57 1018.82 1019.00 1019.09 1019.01 1018.67 1018.26 1017.82 1017.48 1017.19 1016.60 1016.04 1015.25 1014.29
1021.13 1021.76 1022.02 1022.35 1022.16 1022.39 1022.37 1022.58 1022.59 1022.30 1022.23 1022.44 1022.89 1023.09 1023.10 1023.04 1023.03 1022.64 1022.43 1022.54 1021.78 1020.86 1019.58 1018.49 1017.60 1017.62 1017.81 1017.99 1018.07 1018.11 1018.31 1018.44 1018.53 1018.39 1018.07 1017.75 1017.62 1017.22 1016.46 1015.90 1015.51 1015.02 1014.27 1013.50
1021.43 1022.03 1022.12 1022.29 1022.45 1022.64 1022.66 1022.67 1022.55 1022.26 1022.28 1022.49 1022.66 1022.74 1022.90 1022.56 1022.21 1021.84 1021.02 1020.87 1020.00 1019.05 1018.67 1018.07 1017.87 1017.78 1017.90 1017.84 1017.66 1017.64 1017.38 1017.36 1017.47 1017.38 1017.08 1016.92 1016.64 1016.22 1015.74 1014.95 1014.50 1013.87 1013.19 1012.48
1021.63 1021.83 1021.71 1021.93 1022.07 1021.88 1022.05 1022.02 1021.96 1022.08 1022.19 1022.25 1022.58 1022.62 1022.26 1022.25 1021.47 1020.39 1019.75 1019.27 1018.47 1018.03 1017.89 1017.84 1017.78 1017.61 1017.32 1017.18 1017.29 1017.12 1016.90 1016.66 1016.44 1016.15 1015.88 1015.66 1015.35 1015.33 1015.09 1014.39 1013.07 1012.51 1011.91 1011.42
Thickness
5595 5594 5593 5592 5588 5584 5580 5582 5588 5571 5567 5580 5569 5565 5562 5557 5558 5559 5563 5565 5566 5572 5568 5571 5573 5576 5574 5573 5574 5576 5572 5579 5576 5577 5565 5567 5571 5579 5586 5593 5581 5573 5576 5608
5599 5599 5599 5599 5595 5589 5589 5594 5590 5577 5576 5586 5574 5566 5566 5565 5565 5564 5566 5568 5570 5569 5572 5574 5573 5571 5567 5569 5572 5574 5573 5574 5577 5573 5567 5565 5573 5577 5579 5574 5576 5579 5589 5624
5596 5601 5601 5601 5599 5595 5594 5597 5596 5594 5587 5574 5584 5578 5571 5570 5566 5569 5570 5570 5571 5573 5573 5572 5572 5572 5567 5567 5570 5566 5573 5574 5585 5601 5593 5587 5578 5577 5576 5582 5579 5599 5603 5622
5593 5597 5601 5600 5598 5596 5596 5595 5587 5575 5590 5587 5584 5582 5575 5575 5575 5571 5571 5574 5575 5577 5576 5573 5573 5570 5567 5565 5565 5565 5570 5573 5567 5579 5579 5578 5584 5587 5579 5579 5590 5593 5619 5614
5589 5593 5597 5599 5599 5596 5597 5602 5597 5578 5580 5575 5584 5579 5581 5580 5576 5576 5576 5575 5575 5575 5577 5579 5578 5574 5572 5574 5562 5567 5561 5571 5561 5562 5578 5575 5575 5583 5582 5584 5585 5591 5594 5597
5583 5588 5592 5597 5598 5596 5596 5580 5580 5594 5568 5579 5584 5583 5579 5579 5579 5574 5576 5576 5577 5574 5573 5571 5570 5569 5569 5571 5571 5568 5565 5566 5561 5581 5571 5577 5594 5605 5593 5588 5586 5588 5585 5597
5576 5581 5584 5589 5593 5594 5590 5580 5584 5596 5589 5584 5585 5578 5577 5577 5576 5577 5573 5572 5576 5572 5566 5563 5564 5562 5559 5562 5559 5561 5561 5561 5560 5570 5575 5588 5599 5591 5594 5588 5590 5585 5585 5585
5567 5572 5576 5580 5584 5586 5583 5573 5579 5590 5591 5580 5578 5576 5578 5572 5567 5570 5571 5568 5565 5562 5564 5570 5571 5567 5558 5546 5537 5546 5549 5563 5564 5563 5566 5596 5592 5578 5580 5581 5586 5579 5573 5573
5560 5562 5567 5571 5574 5576 5574 5567 5566 5576 5588 5588 5581 5580 5576 5581 5576 5567 5560 5553 5553 5556 5564 5568 5574 5581 5574 5565 5541 5531 5535 5542 5556 5543 5556 5587 5591 5581 5577 5576 5581 5567 5562 5561
5554 5554 5557 5561 5564 5568 5568 5561 5559 5567 5579 5576 5574 5580 5578 5567 5566 5573 5557 5555 5553 5548 5562 5568 5570 5572 5556 5569 5561 5540 5530 5532 5544 5547 5547 5574 5574 5567 5564 5575 5568 5556 5554 5550
5548 5546 5547 5549 5553 5557 5559 5554 5552 5556 5562 5565 5561 5564 5565 5558 5561 5571 5552 5556 5549 5548 5558 5559 5560 5560 5560 5557 5558 5547 5548 5539 5540 5535 5532 5547 5555 5552 5561 5553 5549 5543 5540 5534
5539 5540 5539 5540 5541 5546 5548 5549 5543 5543 5546 5549 5541 5544 5544 5547 5548 5554 5540 5549 5547 5552 5552 5542 5542 5551 5538 5555 5569 5538 5555 5566 5560 5558 5560 5555 5545 5545 5539 5534 5529 5527 5519 5518
5528 5530 5531 5532 5532 5532 5536 5535 5534 5535 5537 5540 5537 5536 5531 5530 5531 5532 5546 5532 5530 5530 5525 5536 5533 5541 5541 5550 5547 5549 5545 5540 5548 5543 5550 5544 5540 5533 5522 5513 5510 5506 5503 5501
5518 5519 5521 5522 5523 5521 5521 5525 5523 5526 5524 5526 5530 5517 5520 5516 5518 5518 5520 5521 5516 5516 5515 5522 5525 5527 5524 5533 5532 5531 5534 5524 5530 5534 5538 5526 5520 5513 5505 5499 5495 5492 5490 5487
5509 5508 5509 5510 5511 5511 5508 5510 5511 5513 5518 5521 5520 5509 5504 5504 5507 5508 5506 5506 5506 5507 5509 5507 5512 5505 5503 5505 5500 5520 5523 5532 5525 5531 5516 5515 5511 5497 5491 5488 5483 5478 5475 5476
5499 5499 5499 5498 5498 5498 5496 5500 5497 5500 5502 5504 5514 5498 5496 5493 5494 5491 5490 5491 5491 5494 5498 5496 5496 5489 5494 5494 5507 5521 5510 5505 5510 5513 5500 5493 5488 5482 5478 5475 5473 5470 5468 5466
5487 5487 5485 5486 5484 5482 5485 5488 5487 5487 5489 5493 5497 5502 5487 5484 5482 5478 5477 5473 5473 5479 5484 5481 5481 5480 5478 5483 5505 5511 5500 5498 5494 5491 5487 5483 5476 5474 5467 5463 5462 5456 5451 5448
5471 5471 5471 5472 5471 5470 5470 5466 5469 5472 5475 5476 5479 5488 5484 5474 5477 5475 5463 5469 5465 5462 5467 5463 5468 5464 5463 5476 5496 5490 5486 5481 5476 5472 5470 5468 5461 5458 5458 5452 5447 5444 5444 5442
5454 5455 5456 5456 5457 5457 5454 5453 5453 5456 5458 5461 5466 5475 5481 5462 5461 5459 5455 5453 5459 5450 5458 5460 5455 5465 5464 5485 5481 5478 5473 5473 5469 5460 5454 5450 5444 5442 5436 5432 5430 5431 5429 5426
5440 5437 5440 5439 5439 5438 5440 5439 5438 5440 5443 5444 5452 5451 5460 5451 5444 5447 5449 5442 5447 5450 5452 5441 5448 5470 5478 5474 5469 5469 5462 5456 5449 5434 5436 5434 5424 5422 5423 5419 5416 5411 5409 5410
5423 5421 5422 5419 5421 5422 5425 5426 5429 5431 5432 5436 5441 5440 5443 5432 5443 5447 5433 5437 5434 5439 5443 5437 5448 5458 5465 5457 5451 5452 5446 5442 5434 5428 5424 5417 5412 5405 5404 5404 5400 5397 5396 5393
5416 5408 5405 5405 5407 5407 5409 5410 5411 5417 5426 5425 5428 5427 5424 5420 5418 5427 5418 5427 5417 5431 5420 5424 5434 5459 5449 5441 5436 5435 5430 5423 5416 5410 5407 5403 5399 5394 5390 5388 5384 5379 5379 5378
5404 5396 5394 5398 5390 5394 5394 5392 5404 5408 5411 5410 5408 5412 5408 5403 5403 5410 5410 5412 5415 5404 5411 5424 5438 5436 5433 5429 5424 5419 5414 5407 5399 5394 5390 5385 5383 5378 5370 5369 5368 5363 5368 5368
5392 5389 5384 5388 5380 5386 5397 5397 5398 5397 5397 5398 5397 5395 5397 5393 5393 5398 5398 5395 5389 5396 5407 5415 5430 5428 5424 5415 5410 5405 5401 5394 5388 5379 5371 5367 5364 5363 5360 5353 5353 5350 5351 5354
5377 5374 5384 5370 5378 5370 5372 5370 5372 5375 5378 5380 5378 5377 5380 5378 5380 5384 5387 5379 5384 5394 5401 5410 5411 5405 5402 5394 5388 5384 5381 5375 5367 5361 5358 5353 5345 5344 5350 5348 5343 5338 5335 5332
5359 5356 5359 5357 5361 5355 5353 5358 5359 5360 5363 5363 5366 5370 5368 5373 5373 5375 5379 5383 5387 5392 5386 5391 5386 5382 5376 5371 5367 5364 5366 5363 5356 5349 5344 5338 5335 5333 5331 5334 5330 5326 5323 5318
5347 5355 5354 5350 5346 5351 5347 5347 5350 5347 5352 5357 5351 5353 5355 5343 5357 5371 5378 5374 5380 5376 5373 5368 5365 5367 5367 5359 5350 5347 5342 5342 5341 5338 5334 5330 5327 5317 5309 5310 5320 5317 5314 5308